COSMOS 1275 DEB, 12674

Orbit data source: Space-Track

COSMOS 1275 DEB, 12674 is space debris in LEO originally from a launch on Thu, 04 Jun 1981 UTC launched from the Plesetsk Missile And Space Complex (PKMTR). Debris objects in space refer to the collection of defunct objects orbiting the Earth. Examples of debris include non-operational satellites, rocket bodies, and fragments generated from explosions, collisions, or faulty payload assembly.

Loading next visibility...
Identifier
12674, 1981-053AE
Orbit
LEO
Country
Flag of CISCIS
Related business
Manufacturer
Unknown
Mission
Spacecraft
Bus & Motor
Unknown
Mass
Unknown
Launch date (UTC)
1981-06-04 (44 years ago)
Launch vehicle
Unknown
Launch site
Plesetsk Missile And Space Complex (PKMTR)
Object type
Payload
Rocket body
Debris
Shape & HBR
Unknown
Radar Cross Section
Medium (>0.1 m² and <1 m²)

Expand to show TLE details & history
Last TLE update: 9 hours ago

TLE from 9 hours ago
0 COSMOS 1275 DEB
1 12674U 81053AE  25258.61783675  .00000618  00000-0  61063-3 0  9996
2 12674  82.9369 209.9208 0103058  29.5972 150.1607 13.74716125202090
Epoch: 2025-09-15T14:49Z
TLE epoch observation values (Epoch: 2025-09-15T14:49:41.095Z)
Latitude
-0.45337°
Longitude
172.73555°
Altitude
1,051.654 km
Speed
7.293 km/s
True Right ascension
01h 59m 54s
True Declination
0° 27' 03"
Sunlit
Object was in full shadow at epoch
Visualization orbit readout
Latitude
Unknown
Longitude
Unknown
Altitude
Unknown
Speed
Unknown
Apparent Right ascension
Unknown
Apparent Declination
Unknown
Sunlit
N/A
Visualization observer readout
Local Sidereal Time
16:40:29
Azimuth
Unknown
Elevation
Unknown
Doppler factor
Unknown
Orbital elements
Apogee altitude
1,055.667 km
Perigee altitude
904.007 km
Semi-major axis
7,357.974 km
Eccentricity
0.01031
Inclination
82.9369°
RAAN
209.9208°
Arg. of periapsis
29.5972°
True anomaly
150.7418°
Mean anomaly
150.1607°
Eccentric anomaly
150.4519°
Mean motion
3.43879 °/min
Orbital period
104.69 mins
BSTAR
0.00061063
Loading maneuver chart data...
Computing Atmospheric mass density...
Loading historical data...
Loading historical data...
Loading historical data...
Loading historical data...
Loading historical data...
Loading historical data...
Loading historical data...

Documentation

Showing up to 5 results
|